Overview Statistics Trail Chart Weather Telemetry Raw packets
 

This is the latest recevied weather packets stored in our database for station/object DG1ROH. If no packets are shown the sender has not sent any weather packets the latest 10 day(s).

<< 188 189 190 191 192 193 194 >>
Time Temp. Humidity Pressure Rain* Wind** Luminosity Snow
1777205849 13.33° C 33% 1024.1 hPa 0 mm - 696 W/m² -
1777205729 13.89° C 36% 1024.2 hPa 0 mm - 698 W/m² -
1777205609 13.89° C 36% 1024.2 hPa 0 mm - 705 W/m² -
1777205489 13.89° C 35% 1024.3 hPa 0 mm - 700 W/m² -
1777205369 13.89° C 36% 1024.3 hPa 0 mm - 703 W/m² -
1777205249 13.89° C 37% 1024.3 hPa 0 mm - 701 W/m² -
1777205129 13.89° C 37% 1024.3 hPa 0 mm - 701 W/m² -
1777205010 13.89° C 34% 1024.3 hPa 0 mm - 689 W/m² -
1777204890 13.89° C 37% 1024.3 hPa 0 mm - 707 W/m² -
1777204769 13.33° C 35% 1024.3 hPa 0 mm - 712 W/m² -
1777204649 13.33° C 34% 1024.2 hPa 0 mm - 714 W/m² -
1777204529 13.33° C 37% 1024.3 hPa 0 mm - 714 W/m² -
1777204409 13.33° C 34% 1024.2 hPa 0 mm - 714 W/m² -
1777204289 13.33° C 34% 1024.3 hPa 0 mm - 715 W/m² -
1777204169 13.33° C 35% 1024.4 hPa 0 mm - 715 W/m² -
1777204049 12.78° C 34% 1024.3 hPa 0 mm - 717 W/m² -
1777203931 12.78° C 33% 1024.3 hPa 0 mm - 719 W/m² -
1777203805 12.78° C 33% 1024.3 hPa 0 mm - 719 W/m² -
1777203685 12.78° C 34% 1024.3 hPa 0 mm - 722 W/m² -
1777203565 12.78° C 32% 1024.3 hPa 0 mm - 722 W/m² -
1777203445 13.33° C 34% 1024.4 hPa 0 mm - 724 W/m² -
1777203325 12.78° C 32% 1024.3 hPa 0 mm - 724 W/m² -
1777203205 12.78° C 34% 1024.3 hPa 0 mm - 722 W/m² -
1777203085 13.33° C 35% 1024.4 hPa 0 mm - 726 W/m² -
1777202965 13.33° C 33% 1024.3 hPa 0 mm - 724 W/m² -

* Rain latest hour (hover to see other rain measurements)
** Current wind speed in m/s (hover to see current wind gust speed)